Albany, NY

11:23 AM EST on December 13, 2019 (GMT -0500)
Albany International

Weather History for KALB - October, 2019

Change the Weather History Date:

Sunday, October 13, 2019

  Actual Average Record
Temperature  
Mean Temperature 52 °F 51 °F  
Max Temperature 62 °F 61 °F 81 °F (1930)
Min Temperature 42 °F 40 °F 24 °F (1981)
Degree Days  
Heating Degree Days 13 15  
Month to date heating degree days 128 160  
Since 1 July heating degree days 205 327  
Cooling Degree Days 0 0  
Month to date cooling degree days 4 0  
Year to date cooling degree days 771 594  
Growing Degree Days 2 (Base 50)    
Moisture  
Dew Point 41 °F    
Average Humidity 66    
Maximum Humidity 89    
Minimum Humidity 42    
Precipitation  
Precipitation 0.00 in 0.12 in 2.17 in (1927)
Month to date precipitation 2.11 1.57  
Year to date precipitation 33.32 31.02  
Snow  
Snow 0.00 in 0.00 in T in (1934)
Month to date snowfall 0.0 0.1  
Since 1 July snowfall 0.0 0.1  
Since 1 September snowfall 0.0 0.1  
Snow Depth 0.00 in    
Sea Level Pressure  
Sea Level Pressure 30.07 in    
Wind  
Wind Speed 4 mph (WSW)    
Max Wind Speed 10 mph    
Max Gust Speed 15 mph    
Visibility 10 miles    
Events      
T = Trace of Precipitation, MM = Missing Value Source: NWS Daily Summary

Daily Weather History Graph

Daily Weather History Graph

Search for Another Location

Airport or City:

Astronomy

Oct. 13, 2019 Rise Set
Actual Time 7:05 AM EDT 6:16 PM EDT
Civil Twilight 6:37 AM EDT 6:44 PM EDT
Nautical Twilight 6:04 AM EDT 7:17 PM EDT
Astronomical Twilight 5:31 AM EDT 7:50 PM EDT
Moon 6:39 PM EDT 6:35 AM EDT
Length of Visible Light 12h 07m
Length of Day
11h 10m
Full, 100% of the Moon is Illuminated
Oct 13
Full
Oct 13
Full
Oct 21
Last Quarter
Oct 27
New
Nov 4
First Quarter

Hourly Weather History & Observations

Time (EDT) Temp. Windchill Dew Point Humidity Pressure Visibility Wind Dir Wind Speed Gust Speed Precip Events Conditions
12:51 AM 55.9 °F - 45.0 °F 67% 30.04 in 10.0 mi West 6.9 mph - N/A   Overcast
1:51 AM 54.0 °F - 43.0 °F 66% 30.05 in 10.0 mi WNW 10.4 mph - N/A   Overcast
2:51 AM 52.0 °F - 43.0 °F 71% 30.06 in 10.0 mi West 5.8 mph - N/A   Mostly Cloudy
3:51 AM 48.9 °F - 42.1 °F 77% 30.07 in 10.0 mi WNW 5.8 mph - N/A   Scattered Clouds
4:51 AM 46.9 °F - 42.1 °F 83% 30.08 in 10.0 mi Calm Calm - N/A   Partly Cloudy
5:51 AM 44.1 °F - 39.9 °F 85% 30.09 in 10.0 mi Calm Calm - N/A   Partly Cloudy
7:51 AM 45.0 °F 41.8 °F 39.9 °F 82% 30.13 in 10.0 mi WNW 5.8 mph - N/A   Scattered Clouds
8:51 AM 50.0 °F - 44.1 °F 80% 30.14 in 10.0 mi NNW 6.9 mph - N/A   Mostly Cloudy
9:51 AM 52.0 °F - 43.0 °F 71% 30.14 in 10.0 mi West 4.6 mph - N/A   Mostly Cloudy
10:51 AM 55.0 °F - 42.1 °F 62% 30.15 in 10.0 mi Variable 3.5 mph - N/A   Mostly Cloudy
11:51 AM 55.9 °F - 41.0 °F 57% 30.12 in 10.0 mi Variable 4.6 mph - N/A   Mostly Cloudy
12:51 PM 57.9 °F - 39.9 °F 51% 30.10 in 10.0 mi Variable 4.6 mph - N/A   Scattered Clouds
1:51 PM 60.1 °F - 39.9 °F 47% 30.08 in 10.0 mi Variable 3.5 mph - N/A   Scattered Clouds
2:51 PM 61.0 °F - 37.9 °F 42% 30.05 in 10.0 mi SE 3.5 mph - N/A   Scattered Clouds
3:51 PM 61.0 °F - 37.9 °F 42% 30.05 in 10.0 mi South 4.6 mph - N/A   Mostly Cloudy
4:51 PM 61.0 °F - 37.9 °F 42% 30.03 in 10.0 mi SSE 4.6 mph - N/A   Mostly Cloudy
5:51 PM 59.0 °F - 39.0 °F 48% 30.01 in 10.0 mi South 6.9 mph - N/A   Mostly Cloudy
6:51 PM 57.0 °F - 39.9 °F 53% 30.02 in 10.0 mi SSE 4.6 mph - N/A   Mostly Cloudy
7:51 PM 54.0 °F - 41.0 °F 62% 30.02 in 10.0 mi Calm Calm - N/A   Mostly Cloudy
8:51 PM 54.0 °F - 41.0 °F 62% 30.02 in 10.0 mi Calm Calm - N/A   Mostly Cloudy
9:51 PM 53.1 °F - 41.0 °F 64% 30.01 in 10.0 mi South 5.8 mph - N/A   Scattered Clouds
10:51 PM 46.9 °F - 41.0 °F 80% 30.01 in 10.0 mi NNW 5.8 mph - N/A   Scattered Clouds
11:51 PM 46.0 °F - 39.9 °F 79% 30.01 in 10.0 mi Calm Calm - N/A   Scattered Clouds